This is the latest recevied weather packets stored in our database for station/object WB4E-13. If no packets are shown the sender has not sent any weather packets the latest 10 day(s).
| Time | Temp. | Humidity | Pressure | Rain* | Wind** | Luminosity | Snow |
|---|---|---|---|---|---|---|---|
| 1777843413 | 18.89° C | 40% | 1014.9 hPa | 0 mm | - | - | - |
| 1777842813 | 18.33° C | 39% | 1015 hPa | 0 mm | - | - | - |
| 1777842219 | 18.33° C | 40% | 1015 hPa | 0 mm | - | - | - |
| 1777841618 | 18.89° C | 41% | 1015.1 hPa | 0 mm | - | - | - |
| 1777841018 | 18.33° C | 41% | 1015.2 hPa | 0 mm | - | - | - |
| 1777840418 | 17.78° C | 40% | 1015.4 hPa | 0 mm | - | - | - |
| 1777839859 | 18.33° C | 40% | 1015.7 hPa | 0 mm | - | - | - |
| 1777839817 | 18.33° C | 40% | 1015.7 hPa | 0 mm | - | - | - |
| 1777839217 | 18.89° C | 38% | 1015.8 hPa | 0 mm | - | - | - |
| 1777838617 | 18.33° C | 39% | 1016 hPa | 0 mm | - | - | - |
| 1777838017 | 18.33° C | 40% | 1016.1 hPa | 0 mm | - | - | - |
| 1777837416 | 18.33° C | 42% | 1016.2 hPa | 0 mm | - | - | - |
| 1777836857 | 18.33° C | 40% | 1016.4 hPa | 0 mm | - | - | - |
| 1777836816 | 18.33° C | 40% | 1016.4 hPa | 0 mm | - | - | - |
| 1777836216 | 18.33° C | 42% | 1016.4 hPa | 0 mm | - | - | - |
| 1777835616 | 17.78° C | 43% | 1016.5 hPa | 0 mm | - | - | - |
| 1777835015 | 17.22° C | 41% | 1016.6 hPa | 0 mm | - | - | - |
| 1777834416 | 17.78° C | 39% | 1016.8 hPa | 0 mm | - | - | - |
| 1777833815 | 17.22° C | 40% | 1016.9 hPa | 0 mm | - | - | - |
| 1777833215 | 17.22° C | 44% | 1017 hPa | 0 mm | - | - | - |
| 1777832615 | 17.22° C | 43% | 1017.2 hPa | 0 mm | - | - | - |
| 1777832094 | 17.22° C | 42% | 1017.3 hPa | 0 mm | - | - | - |
| 1777832015 | 17.22° C | 42% | 1017.3 hPa | 0 mm | - | - | - |
| 1777831414 | 16.67° C | 41% | 1017.4 hPa | 0 mm | - | - | - |
| 1777827813 | 15.56° C | 44% | 1018.2 hPa | 0 mm | - | - | - |
* Rain latest hour (hover to see other rain measurements)
** Current wind speed in m/s (hover to see current wind gust speed)